Home > Weather > Emsdetten > Past weeks

Flag for Germany Weather for the Past 2 Weeks in Emsdetten, North Rhine-Westphalia, Germany

Now
37 °F

Light rain. Passing clouds.


Feels Like: 25 °F
Forecast: 37 / 44 °F
Wind: 31 mph from West

Location: Muenster / Osnabrueck

Current Time: Feb 9, 2016 at 8:01:11 PM

Latest Report: Feb 9, 2016 at 7:20 PM


Visibility: 5 mi

Pressure: 28.82 "Hg

Humidity: 93%

Dew point: 36 °F

Location of EmsdettenLocation

Historic Weather in Emsdetten — Graph

°F

Emsdetten Temperature Yesterday

Maximum temperature yesterday: 50 °F (at 11:50 AM)
Minimum temperature yesterday: 43 °F (at 12:50 AM)
Average temperature yesterday: 46 °F

High & Low Weather Summary for the Past Weeks

 TemperatureHumidityPressure
High54 °F (Jan 25, 11:20 PM)100% (Jan 31, 6:50 PM)30.27 "Hg (Jan 31, 6:50 PM)
Low36 °F (Feb 3, 11:50 PM)53% (Jan 28, 1:50 PM)28.77 "Hg (Feb 9, 5:50 PM)
Average46 °F81%29.86 "Hg
* Reported Jan 25 6:20 PM — Feb 9 6:50 PM, Emsdetten, Weather by CustomWeather, © 2016

Note: Actual official high and low records may vary slightly from our data, if they occured in-between our weather recording intervals... More about our weather records

Advertising

Emsdetten Weather History for the Previous 24 Hours

 ConditionsComfort  
Time TempWeatherWind HumidityBarometerVisibility
6:50 PM
Tue, Feb 9
46 °FLight rain. Passing clouds.21 mph87%28.77 "HgN/A
6:20 PM45 °FPassing clouds.8 mph93%28.77 "HgN/A
5:50 PM43 °FPassing clouds.8 mph93%28.77 "HgN/A
4:50 PM41 °FLight rain. Partly sunny.7 mph100%28.80 "Hg5 mi
4:20 PM41 °FRain. Broken clouds.7 mph93%28.82 "Hg5 mi
3:20 PM39 °FLight rain. Broken clouds.7 mph100%28.91 "Hg4 mi
2:50 PM39 °FRain. More clouds than sun.8 mph93%28.97 "Hg4 mi
2:20 PM41 °FRain. Partly sunny.15 mph87%29.03 "Hg4 mi
1:50 PM43 °FRain. Mostly cloudy.12 mph87%29.06 "Hg5 mi
1:20 PM45 °FLight rain. More clouds than sun.10 mph76%29.09 "HgN/A
12:50 PM46 °FOvercast.8 mph71%29.12 "HgN/A
12:20 PM46 °FMore clouds than sun.9 mph71%29.18 "HgN/A
11:20 AM45 °FMore clouds than sun.9 mph76%29.24 "HgN/A
10:50 AM45 °FMore clouds than sun.12 mph76%29.27 "HgN/A
10:20 AM45 °FPartly sunny.10 mph76%29.27 "HgN/A
9:50 AM45 °FBroken clouds.9 mph76%29.30 "HgN/A
9:20 AM43 °FPartly sunny.9 mph87%29.33 "HgN/A
8:50 AM43 °FSprinkles. Broken clouds.15 mph81%29.33 "HgN/A
8:20 AM43 °FScattered clouds.18 mph81%29.33 "HgN/A
7:50 AM45 °FPassing clouds.18 mph76%29.33 "HgN/A
6:50 AM45 °FPassing clouds.20 mph71%29.36 "HgN/A
6:20 AM45 °FPassing clouds.18 mph71%29.36 "HgN/A
5:50 AM45 °FPassing clouds.18 mph71%29.36 "HgN/A
5:20 AM45 °FPassing clouds.22 mph71%29.39 "HgN/A
4:50 AM43 °FSprinkles. Passing clouds.20 mph81%29.39 "HgN/A
4:20 AM45 °FSprinkles. Passing clouds.23 mph71%29.36 "HgN/A
3:50 AM45 °FPassing clouds.24 mph71%29.36 "HgN/A
3:20 AM45 °FPassing clouds.22 mph76%29.36 "HgN/A
2:20 AM45 °FPassing clouds.23 mph81%29.33 "HgN/A
1:50 AM45 °FLight rain. Passing clouds.25 mph81%29.33 "HgN/A
1:20 AM45 °FLight rain. Passing clouds.25 mph81%29.33 "HgN/A
12:50 AM45 °FLight rain. Passing clouds.26 mph81%29.30 "HgN/A
12:20 AM45 °FLight rain. Passing clouds.26 mph81%29.30 "HgN/A
11:50 PM
Mon, Feb 8
45 °FLight rain. Passing clouds.26 mph81%29.27 "Hg5 mi
11:20 PM45 °FLight rain. Passing clouds.26 mph81%29.27 "HgN/A
10:50 PM45 °FLight rain. Passing clouds.25 mph81%29.27 "HgN/A
10:20 PM45 °FLight rain. Passing clouds.29 mph81%29.24 "HgN/A
9:50 PM46 °FLight rain. Passing clouds.29 mph76%29.24 "HgN/A
9:20 PM45 °FLight rain. Passing clouds.22 mph81%29.24 "HgN/A
8:50 PM45 °FLight rain. Passing clouds.26 mph81%29.24 "HgN/A
8:20 PM45 °FLight rain. Passing clouds.25 mph81%29.24 "HgN/A
Weather by CustomWeather, © 2016

See weather overviewHow to use our weather pages